Home   Weather   Monaco   Monaco   Past weeks
Flag for Monaco

Past Weather in Monaco, Monaco — Yesterday and Last 2 Weeks

Currently: 54 °F. Clear. (Weather station: Nice Airport, Monaco). See more current weather

Past Weather in Monaco — Graph

°F

Monaco Temperature Yesterday

Maximum temperature yesterday: 55 °F (at 2:00 pm)
Minimum temperature yesterday: 45 °F (at 8:00 am)
Average temperature yesterday: 50 °F

High & Low Weather Summary for the Past Weeks

 TemperatureHumidityPressure
High75 °F (Nov 14, 11:30 pm)94% (Nov 13, 10:00 pm)30.21 "Hg (Nov 13, 10:00 pm)
Low43 °F (Nov 26, 5:30 am)18% (Nov 22, 4:00 pm)29.39 "Hg (Nov 28, 4:30 am)
Average56 °F58%29.89 "Hg
* Reported Nov 13 7:00 pm — Nov 28 7:00 pm, Monaco. Weather by CustomWeather, © 2023

Note: Actual official high and low records may vary slightly from our data, if they occured in-between our weather recording intervals... More about our weather records

Monaco Weather History for the Previous 24 Hours

Scroll right to see more
 ConditionsComfort  
Time TempWeatherWind HumidityBarometerVisibility
7:00 pm
Tue, Nov 28
54 °FPassing clouds.6 mph30%29.47 "HgN/A
6:30 pm55 °FClear.7 mph28%29.47 "Hg10 mi
6:00 pm57 °FClear.6 mph27%29.47 "Hg10 mi
5:00 pm59 °FClear.6 mph29%29.45 "Hg10 mi
4:30 pm59 °FPassing clouds.6 mph34%29.42 "HgN/A
4:00 pm61 °FPassing clouds.8 mph31%29.42 "HgN/A
3:30 pm61 °FPassing clouds.15 mph29%29.39 "HgN/A
2:30 pm63 °FPassing clouds.21 mph27%29.39 "HgN/A
2:00 pm63 °FPassing clouds.21 mph27%29.39 "HgN/A
1:00 pm63 °FPassing clouds.18 mph30%29.39 "HgN/A
12:30 pm63 °FPassing clouds.25 mph34%29.39 "HgN/A
12:00 pm63 °FPassing clouds.28 mph32%29.39 "HgN/A
11:30 am61 °FPassing clouds.28 mph34%29.42 "HgN/A
11:00 am61 °FPassing clouds.24 mph34%29.42 "HgN/A
10:30 am61 °FSunny.28 mph36%29.42 "Hg10 mi
10:00 am61 °FSunny.18 mph39%29.42 "Hg10 mi
9:30 am59 °FSunny.20 mph39%29.42 "Hg10 mi
9:00 am57 °FSunny.21 mph41%29.42 "Hg10 mi
8:30 am57 °FSunny.18 mph44%29.42 "Hg10 mi
8:00 am57 °FPassing clouds.15 mph44%29.42 "HgN/A
7:00 am57 °FClear.20 mph44%29.39 "Hg10 mi
6:30 am57 °FClear.22 mph48%29.39 "Hg10 mi
6:00 am57 °FClear.21 mph44%29.39 "Hg10 mi
5:30 am57 °FClear.21 mph48%29.39 "Hg10 mi
5:00 am57 °FClear.21 mph48%29.39 "Hg10 mi
4:30 am57 °FClear.25 mph55%29.39 "Hg10 mi
4:00 am57 °FClear.22 mph51%29.42 "Hg10 mi
3:30 am57 °FClear.24 mph48%29.42 "Hg10 mi
3:00 am57 °FClear.20 mph51%29.42 "Hg10 mi
2:30 am45 °FClear.7 mph71%29.42 "Hg10 mi
2:00 am45 °FClear.8 mph76%29.45 "Hg10 mi
12:30 am50 °FPassing clouds.8 mph67%29.47 "HgN/A
11:30 pm
Mon, Nov 27
52 °FClear.25 mph67%29.50 "Hg10 mi
11:11 pm52 °FClear.24 mph67%29.50 "Hg10 mi
11:00 pm52 °FPassing clouds.22 mph67%29.50 "HgN/A
10:30 pm52 °FPassing clouds.12 mph62%29.53 "HgN/A
10:00 pm50 °FPassing clouds.9 mph62%29.53 "HgN/A
9:30 pm50 °FPassing clouds.9 mph67%29.56 "HgN/A
9:00 pm50 °FPassing clouds.8 mph67%29.56 "HgN/A
8:30 pm50 °FPassing clouds.8 mph67%29.59 "HgN/A
8:00 pm52 °FPassing clouds.7 mph67%29.62 "HgN/A
Weather by CustomWeather, © 2023

See weather overview